Volver al catálogo

SL-12 R/B(2)

ActivoGEO
NORAD 16214·ROCKET BODY·🇷🇺 Russia

Lanzado Oct 25, 1985 desde Baikonur Cosmodrome

Loading…

TLE

ActualizadoSource: Space-Track

Época: Sep 14, 2026, 17:34 UTC

1 16214U 85102D   26257.73211407 -.00000167  00000-0  00000-0 0  9992
2 16214   9.3012 317.4909 0019368 163.8155 208.8548  1.00637943125758

Sigue SL-12 R/B(2) en tiempo real con AllMySat

Download on the App Store